When you browse on this site, cookies collect data to enhance your experience and personalize the content and advertising you see.
Visit our Privacy Policy to learn more. By continuing to use the site, you agree to this use of cookies and data.
  • En España
  • Lista de países
  • Para 7 días
  • Temperatura del agua
  • Mapa Satelital
  • El tiempo en el mapa
  • Informadores
  • user-avatar
    Iniciar sesión

    Tiempo cada hora Bandar Abbas

    Hoy, 21 Enero, Lunes

    Tiempo Temperatura Precipitaciones Viento Presión Humedad
    00:00 +18°C° 0 mm 2 mps 763 mmHg 42%
    01:00 +19°C° 0 mm 1 mps 763 mmHg 44%
    02:00 +17°C° 0 mm 2 mps 763 mmHg 41%
    03:00 +17°C° 0 mm 3 mps 763 mmHg 38%
    04:00 +17°C° 0 mm 4 mps 763 mmHg 35%
    05:00 +17°C° 0 mm 4 mps 763 mmHg 35%
    06:00 +17°C° 0 mm 4 mps 763 mmHg 34%
    07:00 +15°C° 0 mm 4 mps 764 mmHg 34%
    08:00 +17°C° 0 mm 4 mps 764 mmHg 30%
    09:00 +18°C° 0 mm 4 mps 764 mmHg 26%
    10:00 +20°C° 0 mm 4 mps 764 mmHg 23%
    11:00 +20°C° 0 mm 3 mps 763 mmHg 21%
    12:00 +21°C° 0 mm 3 mps 763 mmHg 20%
    13:00 +23°C° 0 mm 2 mps 762 mmHg 18%
    14:00 +23°C° 0 mm 2 mps 762 mmHg 18%
    15:00 +23°C° 0 mm 2 mps 762 mmHg 17%
    16:00 +23°C° 0 mm 1 mps 761 mmHg 17%
    17:00 +22°C° 0 mm 1 mps 761 mmHg 20%
    18:00 +22°C° 0 mm 1 mps 761 mmHg 23%
    19:00 +21°C° 0 mm 1 mps 762 mmHg 26%
    20:00 +21°C° 0 mm 1 mps 762 mmHg 28%
    21:00 +20°C° 0 mm 1 mps 762 mmHg 31%
    22:00 +20°C° 0 mm 1 mps 762 mmHg 33%
    23:00 +19°C° 0 mm 1 mps 762 mmHg 34%

    Mañana, 22 Enero, Martes

    Tiempo Temperatura Precipitaciones Viento Presión Humedad
    00:00 +19°C° 0 mm 1 mps 762 mmHg 35%
    01:00 +16°C° 0 mm 0 mps 761 mmHg 36%
    02:00 +16°C° 0 mm 0 mps 761 mmHg 36%
    03:00 +16°C° 0 mm 0 mps 761 mmHg 36%
    04:00 +15°C° 0 mm 0 mps 761 mmHg 36%
    05:00 +16°C° 0 mm 1 mps 761 mmHg 36%
    06:00 +16°C° 0 mm 1 mps 761 mmHg 35%
    07:00 +16°C° 0 mm 1 mps 761 mmHg 35%
    08:00 +18°C° 0 mm 1 mps 761 mmHg 31%
    09:00 +19°C° 0 mm 1 mps 761 mmHg 27%
    10:00 +20°C° 0 mm 2 mps 762 mmHg 23%
    11:00 +22°C° 0 mm 1 mps 761 mmHg 24%
    12:00 +22°C° 0 mm 1 mps 761 mmHg 25%
    13:00 +23°C° 0 mm 1 mps 760 mmHg 27%
    14:00 +23°C° 0 mm 1 mps 760 mmHg 29%
    15:00 +23°C° 0 mm 2 mps 759 mmHg 30%
    16:00 +22°C° 0 mm 3 mps 759 mmHg 32%
    17:00 +22°C° 0 mm 3 mps 759 mmHg 36%
    18:00 +22°C° 0 mm 3 mps 759 mmHg 40%
    19:00 +21°C° 0 mm 3 mps 760 mmHg 44%
    20:00 +21°C° 0 mm 2 mps 760 mmHg 46%
    21:00 +20°C° 0 mm 2 mps 760 mmHg 48%
    22:00 +20°C° 0 mm 1 mps 760 mmHg 49%
    23:00 +20°C° 0 mm 1 mps 760 mmHg 50%

    Pasado mañana, 23 Enero, Miércoles

    Tiempo Temperatura Precipitaciones Viento Presión Humedad
    00:00 +20°C° 0 mm 1 mps 760 mmHg 50%
    01:00 +20°C° 0 mm 1 mps 760 mmHg 50%
    02:00 +18°C° 0 mm 2 mps 760 mmHg 52%
    03:00 +18°C° 0 mm 2 mps 760 mmHg 53%
    04:00 +18°C° 0 mm 3 mps 760 mmHg 55%
    05:00 +18°C° 0 mm 3 mps 760 mmHg 56%
    06:00 +17°C° 0 mm 3 mps 761 mmHg 57%
    07:00 +17°C° 0 mm 3 mps 761 mmHg 58%
    08:00 +18°C° 0 mm 3 mps 761 mmHg 53%
    09:00 +20°C° 0 mm 3 mps 762 mmHg 48%
    10:00 +21°C° 0 mm 3 mps 762 mmHg 43%
    11:00 +21°C° 0 mm 2 mps 762 mmHg 41%
    12:00 +23°C° 0 mm 2 mps 761 mmHg 39%
    13:00 +24°C° 0 mm 1 mps 761 mmHg 36%
    14:00 +24°C° 0 mm 1 mps 761 mmHg 35%
    15:00 +24°C° 0 mm 1 mps 760 mmHg 35%
    16:00 +24°C° 0 mm 1 mps 760 mmHg 34%
    17:00 +24°C° 0 mm 1 mps 760 mmHg 37%
    18:00 +23°C° 0 mm 1 mps 761 mmHg 40%
    19:00 +23°C° 0 mm 1 mps 761 mmHg 43%
    20:00 +22°C° 0 mm 1 mps 762 mmHg 46%
    21:00 +22°C° 0 mm 1 mps 762 mmHg 49%
    22:00 +21°C° 0 mm 1 mps 763 mmHg 51%
    23:00 +21°C° 0 mm 1 mps 763 mmHg 52%

    24 Enero, Jueves

    Tiempo Temperatura Precipitaciones Viento Presión Humedad
    00:00 +20°C° 0 mm 2 mps 763 mmHg 54%
    01:00 +19°C° 0 mm 2 mps 763 mmHg 55%
    02:00 +19°C° 0 mm 2 mps 763 mmHg 56%
    03:00 +19°C° 0 mm 2 mps 763 mmHg 58%
    04:00 +18°C° 0 mm 2 mps 763 mmHg 59%
    05:00 +18°C° 0 mm 2 mps 763 mmHg 59%
    06:00 +18°C° 0 mm 2 mps 763 mmHg 59%
    07:00 +17°C° 0 mm 2 mps 764 mmHg 59%
    08:00 +19°C° 0 mm 2 mps 764 mmHg 51%
    09:00 +21°C° 0 mm 2 mps 765 mmHg 42%
    10:00 +22°C° 0 mm 3 mps 765 mmHg 34%
    11:00 +24°C° 0 mm 3 mps 765 mmHg 29%
    12:00 +25°C° 0 mm 2 mps 764 mmHg 24%
    13:00 +25°C° 0 mm 2 mps 764 mmHg 19%
    14:00 +25°C° 0 mm 2 mps 764 mmHg 19%
    15:00 +25°C° 0 mm 1 mps 763 mmHg 18%
    16:00 +26°C° 0 mm 1 mps 763 mmHg 18%
    17:00 +25°C° 0 mm 1 mps 763 mmHg 20%
    18:00 +24°C° 0 mm 1 mps 764 mmHg 23%
    19:00 +23°C° 0 mm 1 mps 764 mmHg 25%
    20:00 +23°C° 0 mm 1 mps 764 mmHg 27%
    21:00 +22°C° 0 mm 1 mps 764 mmHg 28%
    22:00 +22°C° 0 mm 1 mps 765 mmHg 29%
    23:00 +21°C° 0 mm 1 mps 765 mmHg 30%

    25 Enero, Viernes

    Tiempo Temperatura Precipitaciones Viento Presión Humedad
    00:00 +21°C° 0 mm 1 mps 764 mmHg 31%
    01:00 +20°C° 0 mm 1 mps 764 mmHg 32%
    02:00 +20°C° 0 mm 1 mps 764 mmHg 32%
    03:00 +20°C° 0 mm 1 mps 764 mmHg 32%
    04:00 +19°C° 0 mm 1 mps 764 mmHg 32%
    05:00 +19°C° 0 mm 1 mps 764 mmHg 32%
    06:00 +18°C° 0 mm 2 mps 764 mmHg 31%
    07:00 +17°C° 0 mm 2 mps 764 mmHg 31%
    08:00 +19°C° 0 mm 2 mps 765 mmHg 26%
    09:00 +21°C° 0 mm 2 mps 765 mmHg 22%
    10:00 +24°C° 0 mm 2 mps 765 mmHg 17%
    11:00 +24°C° 0 mm 2 mps 765 mmHg 16%
    12:00 +25°C° 0 mm 2 mps 764 mmHg 15%
    13:00 +25°C° 0 mm 1 mps 763 mmHg 14%
    14:00 +25°C° 0 mm 2 mps 763 mmHg 15%
    15:00 +26°C° 0 mm 2 mps 762 mmHg 15%
    16:00 +26°C° 0 mm 2 mps 762 mmHg 16%
    17:00 +25°C° 0 mm 2 mps 762 mmHg 20%
    18:00 +24°C° 0 mm 2 mps 763 mmHg 24%
    19:00 +23°C° 0 mm 1 mps 763 mmHg 28%
    20:00 +22°C° 0 mm 1 mps 763 mmHg 29%
    21:00 +22°C° 0 mm 1 mps 763 mmHg 31%
    22:00 +19°C° 0 mm 0 mps 764 mmHg 33%
    23:00 +18°C° 0 mm 0 mps 764 mmHg 34%

    26 Enero, Sábado

    Tiempo Temperatura Precipitaciones Viento Presión Humedad
    00:00 +18°C° 0 mm 0 mps 764 mmHg 34%
    01:00 +18°C° 0 mm 0 mps 763 mmHg 35%
    02:00 +17°C° 0 mm 0 mps 763 mmHg 36%
    03:00 +19°C° 0 mm 1 mps 763 mmHg 36%
    04:00 +19°C° 0 mm 1 mps 763 mmHg 37%
    05:00 +19°C° 0 mm 1 mps 764 mmHg 38%
    06:00 +19°C° 0 mm 1 mps 764 mmHg 39%
    07:00 +18°C° 0 mm 2 mps 764 mmHg 40%
    08:00 +19°C° 0 mm 2 mps 764 mmHg 38%
    09:00 +20°C° 0 mm 2 mps 765 mmHg 36%
    10:00 +23°C° 0 mm 2 mps 765 mmHg 33%
    11:00 +23°C° 0 mm 2 mps 765 mmHg 35%
    12:00 +24°C° 0 mm 2 mps 764 mmHg 37%
    13:00 +24°C° 0 mm 2 mps 763 mmHg 39%
    14:00 +25°C° 0 mm 2 mps 763 mmHg 41%
    15:00 +25°C° 0 mm 2 mps 763 mmHg 42%
    16:00 +25°C° 0 mm 2 mps 762 mmHg 44%
    17:00 +24°C° 0 mm 2 mps 763 mmHg 49%
    18:00 +24°C° 0 mm 1 mps 763 mmHg 55%
    19:00 +23°C° 0 mm 1 mps 764 mmHg 60%
    20:00 +23°C° 0 mm 1 mps 764 mmHg 63%
    21:00 +22°C° 0 mm 1 mps 764 mmHg 66%
    22:00 +22°C° 0 mm 1 mps 765 mmHg 69%
    23:00 +22°C° 0 mm 1 mps 765 mmHg 70%
    Mostrar más